ARIANE 1 DEB

Satellite information

Favourite Embed

Satellite Type and Status

DEBRISIN ORBIT

Key statistics

Satellite ARIANE 1 DEB at a glance.

Uptime

14540

Days in orbit

Revolutions

≈ 13.7

Per day

Orbit

SSO

Sun Synchronous Orbit

Inclination

98.9

Latest

Satellite identification and parameters

Extended collection of information and parameters for ARIANE 1 DEB.

Object identification

Identified? True

Debris? True

Object name: ARIANE 1 DEB

International designator: 1986-019VQ

Object number (NORAD): 35517

Object ID (CCSDS): 35517

Country: FRANCE (FR)

Current information (Y/N): Y

RCS size: SMALL

Orbital parameters

Period: 105.303 minutes

Inclination: 98.8548 deg

SMA: 7386.74 km

Apoapsis: 1290.411 km

Periapsis: 726.799 km

RAAN: 131.2537 deg

Eccentricy: 0.0381503

Argument of periapsis: 53.6744 deg

Mean anomaly: 309.8995 deg

Mean motion: 13.67488096 rev/day

Mean motion (dot): 0.00000419 rev/day2

B* drag term: 0.00032664 1/REarth

Two-line elements (TLE)

Creation date: Dec. 9, 2025, 3:06 p.m.

Reference frame: TEME

Reference center: EARTH

Epoch: Dec. 9, 2025, 5:10 a.m. UTC

TLE line 0: 0 ARIANE 1 DEB

TLE line 1: 1 35517U 86019VQ 25343.21542256 .00000419 00000-0 32664-3 0 9997

TLE line 2: 2 35517 98.8548 131.2537 0381503 53.6744 309.8995 13.67488096116942

Live tracking on map

Real-time ground track for satellite ARIANE 1 DEB.

In-orbit conjunctions

A list of the most updated potential collisions computed for object ARIANE 1 DEB.

Target Orbit TCA Probability of collision Miss distance Type
CZ-6A DEB SSO 2024-11-28 02:07:03 0.0001808213 61.0 (m) DEBRIS

Associated space launch

SPOT 1 is a French Earth observation satellite. Viking is Sweden's first satellite.

ARIANE 1 DEB was lifted into orbit during the mission ‘Ariane 1 | SPOT 1 & Viking’, on board a Ariane 1 space rocket.

The launch took place on Feb. 22, 1986, 1:44 a.m. from Ariane Launch Area 1 (ELV).

For more information about the launch, click the button.

Launch to space Ariane 1 | SPOT 1 & Viking
Ariane 1 | SPOT 1 & Viking

Agency: N/A

Status: Launch Successful

Launch date: Feb. 22, 1986, 1:44 a.m. UTC

Rocket: Ariane 1

Launch pad: Ariane Launch Area 1 (ELV)

Location: Guiana Space Centre, French Guiana

...

Latest news about this satellite

There are no fresh news available about this satellite. Check back as we update our databases every day.


Newsletter sign-up

Weekly statistics, charts and insights to help you stay on top of the space industry.